Cruise_ID,Date_Time_EST,Date_EST,Time_EST,Date_Time_UTC,Date_UTC,Time_UTC,Latitude,Longitude,CO2,Ship Temp C,Ship Sal PSU,Ship Wind TS
12MHM05,8/2/12 4:25 PM,8/2/2012,4:25 PM,8/2/12 8:25 PM,8/2/12,8:25 PM,27.60082,-83.66688333,422.20,29.35845,35.78,2.094
12MHM05,8/2/12 4:40 PM,8/2/2012,4:40 PM,8/2/12 8:40 PM,8/2/12,8:40 PM,27.60047,-83.70568333,347.30,29.36865,35.74,2.63
12MHM05,8/2/12 4:55 PM,8/2/2012,4:55 PM,8/2/12 8:55 PM,8/2/12,8:55 PM,27.60013,-83.74398333,323.30,29.2849,35.66,1.805
12MHM05,8/2/12 5:10 PM,8/2/2012,5:10 PM,8/2/12 9:10 PM,8/2/12,9:10 PM,27.59977,-83.78243333,340.30,29.37505,35.49,2.617
12MHM05,8/2/12 5:25 PM,8/2/2012,5:25 PM,8/2/12 9:25 PM,8/2/12,9:25 PM,27.59947,-83.82096667,353.00,29.41135,35.60,2.393
12MHM05,8/2/12 5:40 PM,8/2/2012,5:40 PM,8/2/12 9:40 PM,8/2/12,9:40 PM,27.59922,-83.85896667,363.20,29.47265,35.60,2.655
12MHM05,8/2/12 6:15 PM,8/2/2012,6:15 PM,8/2/12 10:15 PM,8/2/12,10:15 PM,27.60095,-83.9326,439.10,29.41815,35.64,3.125
12MHM05,8/2/12 6:30 PM,8/2/2012,6:30 PM,8/2/12 10:30 PM,8/2/12,10:30 PM,27.59747,-83.96995,416.60,29.4175,35.78,3.636
12MHM05,8/2/12 6:45 PM,8/2/2012,6:45 PM,8/2/12 10:45 PM,8/2/12,10:45 PM,27.59247,-84.00555,399.10,29.23235,35.79,2.904
12MHM05,8/2/12 7:00 PM,8/2/2012,7:00 PM,8/2/12 11:00 PM,8/2/12,11:00 PM,27.58747,-84.04338333,400.00,29.2172,35.81,2.362
12MHM05,8/2/12 7:15 PM,8/2/2012,7:15 PM,8/2/12 11:15 PM,8/2/12,11:15 PM,27.58247,-84.08176667,398.10,29.2679,35.68,2.644
12MHM05,8/2/12 7:30 PM,8/2/2012,7:30 PM,8/2/12 11:30 PM,8/2/12,11:30 PM,27.57765,-84.12036667,395.90,29.4203,35.72,2.859
12MHM05,8/2/12 7:45 PM,8/2/2012,7:45 PM,8/2/12 11:45 PM,8/2/12,11:45 PM,27.57303,-84.15855,398.40,29.36815,35.72,4.201
12MHM05,8/2/12 8:00 PM,8/2/2012,8:00 PM,8/3/12 12:00 AM,8/3/12,12:00 AM,27.56797,-84.19588333,399.90,29.3784,35.74,2.831
12MHM05,8/2/12 8:15 PM,8/2/2012,8:15 PM,8/3/12 12:15 AM,8/3/12,12:15 AM,27.56287,-84.23303333,396.80,29.33335,35.70,3.765
12MHM05,8/2/12 8:30 PM,8/2/2012,8:30 PM,8/3/12 12:30 AM,8/3/12,12:30 AM,27.55747,-84.27143333,399.60,29.46335,35.73,2.878
12MHM05,8/2/12 8:45 PM,8/2/2012,8:45 PM,8/3/12 12:45 AM,8/3/12,12:45 AM,27.55230,-84.31083333,392.70,29.39135,35.72,3.302
12MHM05,8/2/12 9:00 PM,8/2/2012,9:00 PM,8/3/12 1:00 AM,8/3/12,1:00 AM,27.54733,-84.35078333,396.20,29.56855,35.74,1.902
12MHM05,8/2/12 9:15 PM,8/2/2012,9:15 PM,8/3/12 1:15 AM,8/3/12,1:15 AM,27.54203,-84.3907,389.70,29.65045,35.75,1.457
12MHM05,8/2/12 9:30 PM,8/2/2012,9:30 PM,8/3/12 1:30 AM,8/3/12,1:30 AM,27.53717,-84.43065,387.40,29.58085,35.76,2.491
12MHM05,8/2/12 9:45 PM,8/2/2012,9:45 PM,8/3/12 1:45 AM,8/3/12,1:45 AM,27.53273,-84.471,383.70,29.4449,35.75,1.854
12MHM05,8/2/12 10:00 PM,8/2/2012,10:00 PM,8/3/12 2:00 AM,8/3/12,2:00 AM,27.52808,-84.51153333,384.80,29.5266,35.75,1.508
12MHM05,8/2/12 10:15 PM,8/2/2012,10:15 PM,8/3/12 2:15 AM,8/3/12,2:15 AM,27.52320,-84.55286667,381.30,29.4988,35.73,1.764
12MHM05,8/2/12 10:30 PM,8/2/2012,10:30 PM,8/3/12 2:30 AM,8/3/12,2:30 AM,27.51903,-84.59458333,385.50,29.5507,35.76,1.759
12MHM05,8/2/12 10:45 PM,8/2/2012,10:45 PM,8/3/12 2:45 AM,8/3/12,2:45 AM,27.51447,-84.63636667,383.60,29.49615,35.75,2.061
12MHM05,8/2/12 11:00 PM,8/2/2012,11:00 PM,8/3/12 3:00 AM,8/3/12,3:00 AM,27.50932,-84.67815,388.20,29.4787,35.72,2.757
12MHM05,8/2/12 11:15 PM,8/2/2012,11:15 PM,8/3/12 3:15 AM,8/3/12,3:15 AM,27.50385,-84.71921667,385.80,29.45715,35.70,3.237
12MHM05,8/2/12 11:30 PM,8/2/2012,11:30 PM,8/3/12 3:30 AM,8/3/12,3:30 AM,27.49900,-84.76098333,388.60,29.4321,35.65,3.567
12MHM05,8/2/12 11:45 PM,8/2/2012,11:45 PM,8/3/12 3:45 AM,8/3/12,3:45 AM,27.49392,-84.80298333,386.50,29.56145,35.54,2.72
12MHM05,8/3/00 12:00 AM,8/3/1900,12:00 AM,8/3/00 4:00 AM,8/3/00,4:00 AM,27.49017,-84.8452,389.50,29.38845,35.41,3.099
12MHM05,8/3/00 12:15 AM,8/3/1900,12:15 AM,8/3/00 4:15 AM,8/3/00,4:15 AM,27.48675,-84.88725,389.40,29.2455,35.26,3.849
12MHM05,8/3/00 12:30 AM,8/3/1900,12:30 AM,8/3/00 4:30 AM,8/3/00,4:30 AM,27.48423,-84.92903333,387.20,29.33665,35.18,3.238
12MHM05,8/3/00 12:45 AM,8/3/1900,12:45 AM,8/3/00 4:45 AM,8/3/00,4:45 AM,27.48170,-84.97071667,384.20,29.36495,35.27,3.528
12MHM05,8/3/00 1:00 AM,8/3/1900,1:00 AM,8/3/00 5:00 AM,8/3/00,5:00 AM,27.47920,-85.01253333,385.50,29.3044,35.26,3.994
12MHM05,8/3/00 1:15 AM,8/3/1900,1:15 AM,8/3/00 5:15 AM,8/3/00,5:15 AM,27.47677,-85.05466667,385.00,29.2812,35.55,4.354
12MHM05,8/3/00 1:30 AM,8/3/1900,1:30 AM,8/3/00 5:30 AM,8/3/00,5:30 AM,27.47427,-85.09698333,387.20,29.3278,35.69,3.89
12MHM05,8/3/00 1:45 AM,8/3/1900,1:45 AM,8/3/00 5:45 AM,8/3/00,5:45 AM,27.47168,-85.13915,386.90,29.42635,35.85,3.452
12MHM05,8/3/00 2:00 AM,8/3/1900,2:00 AM,8/3/00 6:00 AM,8/3/00,6:00 AM,27.46920,-85.18146667,386.40,29.58225,35.89,3.991
12MHM05,8/3/00 2:15 AM,8/3/1900,2:15 AM,8/3/00 6:15 AM,8/3/00,6:15 AM,27.46678,-85.22435,386.50,29.61495,35.91,4.67
12MHM05,8/3/00 2:30 AM,8/3/1900,2:30 AM,8/3/00 6:30 AM,8/3/00,6:30 AM,27.01412,-85.26805,387.50,29.62665,35.89,5.011
12MHM05,8/3/00 2:45 AM,8/3/1900,2:45 AM,8/3/00 6:45 AM,8/3/00,6:45 AM,27.01143,-85.31236667,101.60,29.74895,35.88,5.056
12MHM05,8/3/00 3:00 AM,8/3/1900,3:00 AM,8/3/00 7:00 AM,8/3/00,7:00 AM,27.00877,-85.35691667,388.70,29.95735,35.96,5.474
12MHM05,8/3/00 3:15 AM,8/3/1900,3:15 AM,8/3/00 7:15 AM,8/3/00,7:15 AM,27.00622,-85.40166667,383.10,30.1469,36.01,4.545
12MHM05,8/3/00 3:30 AM,8/3/1900,3:30 AM,8/3/00 7:30 AM,8/3/00,7:30 AM,27.00348,-85.4464,384.70,30.1514,36.02,4.299
12MHM05,8/3/00 3:45 AM,8/3/1900,3:45 AM,8/3/00 7:45 AM,8/3/00,7:45 AM,27.00092,-85.49121667,387.70,30.08215,35.94,6.164
12MHM05,8/3/00 4:00 AM,8/3/1900,4:00 AM,8/3/00 8:00 AM,8/3/00,8:00 AM,27.44868,-85.53205,387.40,30.22795,36.00,6.59
12MHM05,8/3/00 4:15 AM,8/3/1900,4:15 AM,8/3/00 8:15 AM,8/3/00,8:15 AM,27.00275,-85.53555,395.70,30.04065,35.86,5.3
12MHM05,8/3/00 4:30 AM,8/3/1900,4:30 AM,8/3/00 8:30 AM,8/3/00,8:30 AM,27.00745,-85.53995,394.90,30.1885,35.84,5.714
12MHM05,8/3/00 4:45 AM,8/3/1900,4:45 AM,8/3/00 8:45 AM,8/3/00,8:45 AM,27.01182,-85.54498333,396.40,29.95755,35.64,5.715
12MHM05,8/3/00 5:00 AM,8/3/1900,5:00 AM,8/3/00 9:00 AM,8/3/00,9:00 AM,27.01512,-85.55171667,395.50,29.7714,35.51,4.612
12MHM05,8/3/00 5:15 AM,8/3/1900,5:15 AM,8/3/00 9:15 AM,8/3/00,9:15 AM,27.01525,-85.56506667,394.40,29.7719,35.55,3.941
12MHM05,8/3/00 5:30 AM,8/3/1900,5:30 AM,8/3/00 9:30 AM,8/3/00,9:30 AM,27.46783,-85.57625,394.60,29.7701,35.53,3.586
12MHM05,8/3/00 5:45 AM,8/3/1900,5:45 AM,8/3/00 9:45 AM,8/3/00,9:45 AM,27.47105,-85.58546667,393.00,29.7581,35.52,4.134
12MHM05,8/3/00 6:00 AM,8/3/1900,6:00 AM,8/3/00 10:00 AM,8/3/00,10:00 AM,27.47563,-85.59306667,395.80,29.7653,35.51,5.205
12MHM05,8/3/00 6:15 AM,8/3/1900,6:15 AM,8/3/00 10:15 AM,8/3/00,10:15 AM,27.48050,-85.60425,399.30,29.81295,35.58,5.9
12MHM05,8/3/00 6:30 AM,8/3/1900,6:30 AM,8/3/00 10:30 AM,8/3/00,10:30 AM,27.48553,-85.61286667,399.20,29.8102,35.66,4.613
12MHM05,8/3/00 6:45 AM,8/3/1900,6:45 AM,8/3/00 10:45 AM,8/3/00,10:45 AM,27.49082,-85.61816667,402.60,29.803,35.67,4.351
12MHM05,8/3/00 7:00 AM,8/3/1900,7:00 AM,8/3/00 11:00 AM,8/3/00,11:00 AM,27.49522,-85.62125,406.90,29.7836,35.65,4.452
12MHM05,8/3/00 7:15 AM,8/3/1900,7:15 AM,8/3/00 11:15 AM,8/3/00,11:15 AM,27.49787,-85.62153333,408.00,29.7568,35.64,4.58
12MHM05,8/3/00 7:30 AM,8/3/1900,7:30 AM,8/3/00 11:30 AM,8/3/00,11:30 AM,27.50235,-85.62255,409.20,29.7719,35.59,2.747
12MHM05,8/3/00 7:45 AM,8/3/1900,7:45 AM,8/3/00 11:45 AM,8/3/00,11:45 AM,27.50622,-85.6231,409.10,29.739,35.55,3.784
12MHM05,8/3/00 8:00 AM,8/3/1900,8:00 AM,8/3/00 12:00 PM,8/3/00,12:00 PM,27.51148,-85.62546667,405.10,29.75945,35.55,3.963
12MHM05,8/3/00 8:15 AM,8/3/1900,8:15 AM,8/3/00 12:15 PM,8/3/00,12:15 PM,27.51652,-85.62828333,405.30,29.7624,35.57,3.599
12MHM05,8/3/00 8:30 AM,8/3/1900,8:30 AM,8/3/00 12:30 PM,8/3/00,12:30 PM,27.52275,-85.63116667,404.90,29.7724,35.60,7.369
12MHM05,8/3/00 8:45 AM,8/3/1900,8:45 AM,8/3/00 12:45 PM,8/3/00,12:45 PM,27.52978,-85.63388333,405.00,29.7745,35.61,7.241
12MHM05,8/3/00 9:00 AM,8/3/1900,9:00 AM,8/3/00 1:00 PM,8/3/00,1:00 PM,27.53492,-85.63643333,404.90,29.815,35.60,6.713
12MHM05,8/3/00 9:15 AM,8/3/1900,9:15 AM,8/3/00 1:15 PM,8/3/00,1:15 PM,27.53967,-85.63883333,405.70,29.94465,35.56,4.411
12MHM05,8/3/00 9:30 AM,8/3/1900,9:30 AM,8/3/00 1:30 PM,8/3/00,1:30 PM,27.54607,-85.64236667,405.60,29.9353,35.55,5.768
12MHM05,8/3/00 9:45 AM,8/3/1900,9:45 AM,8/3/00 1:45 PM,8/3/00,1:45 PM,27.55337,-85.64648333,406.00,29.9405,35.51,5.238
12MHM05,8/3/00 10:00 AM,8/3/1900,10:00 AM,8/3/00 2:00 PM,8/3/00,2:00 PM,27.56007,-85.65006667,406.10,30.15455,35.51,3.821
12MHM05,8/3/00 10:15 AM,8/3/1900,10:15 AM,8/3/00 2:15 PM,8/3/00,2:15 PM,27.56785,-85.65443333,404.70,29.97775,35.50,4.359
12MHM05,8/3/00 10:30 AM,8/3/1900,10:30 AM,8/3/00 2:30 PM,8/3/00,2:30 PM,27.57777,-85.65985,403.70,29.91815,35.68,4.17
12MHM05,8/3/00 10:45 AM,8/3/1900,10:45 AM,8/3/00 2:45 PM,8/3/00,2:45 PM,27.57793,-85.65828333,403.50,30.71615,35.47,3.891
12MHM05,8/3/00 11:00 AM,8/3/1900,11:00 AM,8/3/00 3:00 PM,8/3/00,3:00 PM,27.57412,-85.65633333,404.20,30.28855,35.54,3.484
12MHM05,8/3/00 11:15 AM,8/3/1900,11:15 AM,8/3/00 3:15 PM,8/3/00,3:15 PM,27.57037,-85.6567,404.10,30.53555,35.52,4.409
12MHM05,8/3/00 11:30 AM,8/3/1900,11:30 AM,8/3/00 3:30 PM,8/3/00,3:30 PM,27.56723,-85.65733333,403.60,30.5747,35.56,4.404
12MHM05,8/3/00 11:45 AM,8/3/1900,11:45 AM,8/3/00 3:45 PM,8/3/00,3:45 PM,27.56390,-85.6573,403.30,30.338,35.53,3.404
12MHM05,8/3/00 12:00 PM,8/3/1900,12:00 PM,8/3/00 4:00 PM,8/3/00,4:00 PM,27.56167,-85.65728333,396.40,30.44705,35.58,3.785
12MHM05,8/3/00 12:15 PM,8/3/1900,12:15 PM,8/3/00 4:15 PM,8/3/00,4:15 PM,27.55982,-85.65718333,407.20,30.6177,35.63,4.524
12MHM05,8/3/00 12:30 PM,8/3/1900,12:30 PM,8/3/00 4:30 PM,8/3/00,4:30 PM,27.55812,-85.65683333,403.70,30.7624,35.67,2.777
12MHM05,8/3/00 12:45 PM,8/3/1900,12:45 PM,8/3/00 4:45 PM,8/3/00,4:45 PM,27.55627,-85.6565,401.90,30.89175,35.71,4.548
12MHM05,8/3/00 1:00 PM,8/3/1900,1:00 PM,8/3/00 5:00 PM,8/3/00,5:00 PM,27.55430,-85.6561,397.20,31.04695,35.74,2.994
12MHM05,8/3/00 6:25 PM,8/3/1900,6:25 PM,8/3/00 10:25 PM,8/3/00,10:25 PM,27.53277,-85.65156667,437.60,-999,-999.00,0.621
12MHM05,8/3/00 6:40 PM,8/3/1900,6:40 PM,8/3/00 10:40 PM,8/3/00,10:40 PM,27.53680,-85.65986667,431.60,-999,-999.00,0.979
12MHM05,8/3/00 6:55 PM,8/3/1900,6:55 PM,8/3/00 10:55 PM,8/3/00,10:55 PM,27.54077,-85.66853333,420.40,-999,-999.00,0.664
12MHM05,8/3/00 7:10 PM,8/3/1900,7:10 PM,8/3/00 11:10 PM,8/3/00,11:10 PM,27.54457,-85.67705,419.30,-999,-999.00,0.997
12MHM05,8/3/00 7:25 PM,8/3/1900,7:25 PM,8/3/00 11:25 PM,8/3/00,11:25 PM,27.54832,-85.68586667,419.70,-999,-999.00,0.447
12MHM05,8/3/00 7:40 PM,8/3/1900,7:40 PM,8/3/00 11:40 PM,8/3/00,11:40 PM,27.55197,-85.6952,419.50,-999,-999.00,1.738
12MHM05,8/3/00 7:55 PM,8/3/1900,7:55 PM,8/3/00 11:55 PM,8/3/00,11:55 PM,27.55560,-85.70493333,419.10,-999,-999.00,1.005
12MHM05,8/3/00 8:10 PM,8/3/1900,8:10 PM,8/4/00 12:10 AM,8/4/00,12:10 AM,27.55932,-85.71458333,419.30,30.5159,35.96,1.96
12MHM05,8/3/00 8:25 PM,8/3/1900,8:25 PM,8/4/00 12:25 AM,8/4/00,12:25 AM,27.56328,-85.72423333,419.80,30.5698,35.97,1.581
12MHM05,8/3/00 8:40 PM,8/3/1900,8:40 PM,8/4/00 12:40 AM,8/4/00,12:40 AM,27.56767,-85.73493333,418.20,30.55895,35.97,1
12MHM05,8/3/00 8:55 PM,8/3/1900,8:55 PM,8/4/00 12:55 AM,8/4/00,12:55 AM,27.57208,-85.74598333,417.70,30.47585,35.94,0.579
12MHM05,8/3/00 9:10 PM,8/3/1900,9:10 PM,8/4/00 1:10 AM,8/4/00,1:10 AM,27.57427,-85.75251667,417.80,30.5485,35.96,0.503
12MHM05,8/3/00 9:25 PM,8/3/1900,9:25 PM,8/4/00 1:25 AM,8/4/00,1:25 AM,27.57492,-85.75456667,417.00,30.4687,35.95,1.064
12MHM05,8/3/00 9:40 PM,8/3/1900,9:40 PM,8/4/00 1:40 AM,8/4/00,1:40 AM,27.57915,-85.75778333,417.50,30.3602,35.95,0.939
12MHM05,8/3/00 9:55 PM,8/3/1900,9:55 PM,8/4/00 1:55 AM,8/4/00,1:55 AM,27.58748,-85.75483333,415.60,30.21945,35.95,1.165
12MHM05,8/3/00 10:10 PM,8/3/1900,10:10 PM,8/4/00 2:10 AM,8/4/00,2:10 AM,27.60542,-85.76573333,416.60,30.32825,35.96,1.2
12MHM05,8/3/00 10:25 PM,8/3/1900,10:25 PM,8/4/00 2:25 AM,8/4/00,2:25 AM,27.63775,-85.78933333,414.70,30.2767,35.95,2.044
12MHM05,8/3/00 10:40 PM,8/3/1900,10:40 PM,8/4/00 2:40 AM,8/4/00,2:40 AM,27.67313,-85.79691667,416.40,30.25935,35.96,1.183
12MHM05,8/3/00 10:55 PM,8/3/1900,10:55 PM,8/4/00 2:55 AM,8/4/00,2:55 AM,27.70722,-85.79788333,415.00,30.20805,35.96,1.577
12MHM05,8/3/00 11:10 PM,8/3/1900,11:10 PM,8/4/00 3:10 AM,8/4/00,3:10 AM,27.74102,-85.79725,413.50,30.3474,35.96,1.33
12MHM05,8/3/00 11:25 PM,8/3/1900,11:25 PM,8/4/00 3:25 AM,8/4/00,3:25 AM,27.77492,-85.79668333,414.40,30.2119,35.78,1.261
12MHM05,8/3/00 11:40 PM,8/3/1900,11:40 PM,8/4/00 3:40 AM,8/4/00,3:40 AM,27.80950,-85.79538333,413.90,30.16185,35.52,1.574
12MHM05,8/3/00 11:55 PM,8/3/1900,11:55 PM,8/4/00 3:55 AM,8/4/00,3:55 AM,27.84433,-85.79368333,412.10,30.10935,35.61,5.327
12MHM05,8/4/12 12:10 AM,8/4/2012,12:10 AM,8/4/12 4:10 AM,8/4/12,4:10 AM,27.87928,-85.79256667,412.50,30.30085,35.82,3.881
12MHM05,8/4/12 12:25 AM,8/4/2012,12:25 AM,8/4/12 4:25 AM,8/4/12,4:25 AM,27.91432,-85.7914,411.70,30.26615,35.87,4.019
12MHM05,8/4/12 12:40 AM,8/4/2012,12:40 AM,8/4/12 4:40 AM,8/4/12,4:40 AM,27.94963,-85.79046667,409.90,30.1747,35.88,3.79
12MHM05,8/4/12 12:55 AM,8/4/2012,12:55 AM,8/4/12 4:55 AM,8/4/12,4:55 AM,27.98493,-85.78933333,407.60,30.2371,35.95,3.335
12MHM05,8/4/12 1:10 AM,8/4/2012,1:10 AM,8/4/12 5:10 AM,8/4/12,5:10 AM,28.01980,-85.7883,409.10,30.251,36.13,2.896
12MHM05,8/4/12 1:25 AM,8/4/2012,1:25 AM,8/4/12 5:25 AM,8/4/12,5:25 AM,28.05410,-85.7871,408.30,30.18405,36.06,3.187
12MHM05,8/4/12 1:40 AM,8/4/2012,1:40 AM,8/4/12 5:40 AM,8/4/12,5:40 AM,28.08898,-85.78618333,407.80,29.9756,35.96,1.97
12MHM05,8/4/12 1:55 AM,8/4/2012,1:55 AM,8/4/12 5:55 AM,8/4/12,5:55 AM,28.12368,-85.78503333,407.00,29.8002,35.94,2.508
12MHM05,8/4/12 2:10 AM,8/4/2012,2:10 AM,8/4/12 6:10 AM,8/4/12,6:10 AM,28.15857,-85.78391667,408.90,29.8052,35.94,2.379
12MHM05,8/4/12 2:25 AM,8/4/2012,2:25 AM,8/4/12 6:25 AM,8/4/12,6:25 AM,28.19358,-85.78295,407.60,29.9463,35.96,2.607
12MHM05,8/4/12 2:40 AM,8/4/2012,2:40 AM,8/4/12 6:40 AM,8/4/12,6:40 AM,28.22900,-85.78181667,408.90,29.64455,35.97,3.654
12MHM05,8/4/12 2:55 AM,8/4/2012,2:55 AM,8/4/12 6:55 AM,8/4/12,6:55 AM,28.26475,-85.78065,406.10,29.81645,35.97,3.634
12MHM05,8/4/12 3:10 AM,8/4/2012,3:10 AM,8/4/12 7:10 AM,8/4/12,7:10 AM,28.30065,-85.77968333,407.60,29.7307,35.98,4.712
12MHM05,8/4/12 3:25 AM,8/4/2012,3:25 AM,8/4/12 7:25 AM,8/4/12,7:25 AM,28.33707,-85.77855,404.50,30.0458,36.04,5.144
12MHM05,8/4/12 3:40 AM,8/4/2012,3:40 AM,8/4/12 7:40 AM,8/4/12,7:40 AM,28.37395,-85.77735,403.50,29.8909,36.02,5.238
12MHM05,8/4/12 3:55 AM,8/4/2012,3:55 AM,8/4/12 7:55 AM,8/4/12,7:55 AM,28.41118,-85.77618333,403.60,29.9126,36.02,4.17
12MHM05,8/4/12 4:10 AM,8/4/2012,4:10 AM,8/4/12 8:10 AM,8/4/12,8:10 AM,28.44828,-85.7751,402.30,29.78385,36.00,4.568
12MHM05,8/4/12 4:25 AM,8/4/2012,4:25 AM,8/4/12 8:25 AM,8/4/12,8:25 AM,28.48510,-85.77405,399.70,29.9593,36.02,5.054
12MHM05,8/4/12 4:40 AM,8/4/2012,4:40 AM,8/4/12 8:40 AM,8/4/12,8:40 AM,28.52203,-85.77288333,394.90,29.8799,36.02,4.484
12MHM05,8/4/12 4:55 AM,8/4/2012,4:55 AM,8/4/12 8:55 AM,8/4/12,8:55 AM,28.55922,-85.77175,392.60,29.8687,36.03,4.925
12MHM05,8/4/12 5:10 AM,8/4/2012,5:10 AM,8/4/12 9:10 AM,8/4/12,9:10 AM,28.59647,-85.77048333,391.90,29.80085,36.03,4.804
12MHM05,8/4/12 5:25 AM,8/4/2012,5:25 AM,8/4/12 9:25 AM,8/4/12,9:25 AM,28.63372,-85.76948333,394.60,29.9945,36.05,5.019
12MHM05,8/4/12 5:40 AM,8/4/2012,5:40 AM,8/4/12 9:40 AM,8/4/12,9:40 AM,28.67113,-85.76828333,391.40,29.9559,36.03,4.902
12MHM05,8/4/12 5:55 AM,8/4/2012,5:55 AM,8/4/12 9:55 AM,8/4/12,9:55 AM,28.70785,-85.7671,393.20,29.72155,35.72,5.812
12MHM05,8/4/12 6:10 AM,8/4/2012,6:10 AM,8/4/12 10:10 AM,8/4/12,10:10 AM,28.74383,-85.76605,392.10,29.6636,35.66,4.879
12MHM05,8/4/12 6:25 AM,8/4/2012,6:25 AM,8/4/12 10:25 AM,8/4/12,10:25 AM,28.77968,-85.76486667,397.30,29.645,35.63,5.102
12MHM05,8/4/12 6:40 AM,8/4/2012,6:40 AM,8/4/12 10:40 AM,8/4/12,10:40 AM,28.81510,-85.76386667,395.60,29.5557,35.61,4.993
12MHM05,8/4/12 6:55 AM,8/4/2012,6:55 AM,8/4/12 10:55 AM,8/4/12,10:55 AM,28.85063,-85.76281667,394.80,29.45685,35.63,4.666
12MHM05,8/4/12 7:10 AM,8/4/2012,7:10 AM,8/4/12 11:10 AM,8/4/12,11:10 AM,28.88585,-85.76165,392.70,29.5298,35.79,4.869
12MHM05,8/4/12 7:25 AM,8/4/2012,7:25 AM,8/4/12 11:25 AM,8/4/12,11:25 AM,28.92068,-85.76065,395.00,29.46015,35.76,4.415
12MHM05,8/4/12 7:40 AM,8/4/2012,7:40 AM,8/4/12 11:40 AM,8/4/12,11:40 AM,28.95555,-85.75953333,393.80,29.36265,35.81,4.206
12MHM05,8/4/12 7:55 AM,8/4/2012,7:55 AM,8/4/12 11:55 AM,8/4/12,11:55 AM,28.99083,-85.75833333,393.90,29.1411,35.76,4.486
12MHM05,8/4/12 8:10 AM,8/4/2012,8:10 AM,8/4/12 12:10 PM,8/4/12,12:10 PM,29.02642,-85.75735,392.90,29.10155,35.70,3.866
12MHM05,8/4/12 8:25 AM,8/4/2012,8:25 AM,8/4/12 12:25 PM,8/4/12,12:25 PM,29.06173,-85.75626667,394.00,29.11485,35.68,3.399
12MHM05,8/4/12 8:40 AM,8/4/2012,8:40 AM,8/4/12 12:40 PM,8/4/12,12:40 PM,29.09740,-85.75538333,396.20,29.1304,35.69,2.533
12MHM05,8/4/12 8:55 AM,8/4/2012,8:55 AM,8/4/12 12:55 PM,8/4/12,12:55 PM,29.13307,-85.75541667,397.90,29.10985,35.73,3.742
12MHM05,8/4/12 9:10 AM,8/4/2012,9:10 AM,8/4/12 1:10 PM,8/4/12,1:10 PM,29.16855,-85.75535,397.70,29.05015,35.75,3.39
12MHM05,8/4/12 9:25 AM,8/4/2012,9:25 AM,8/4/12 1:25 PM,8/4/12,1:25 PM,29.20333,-85.75528333,398.00,29.0149,35.70,1.128
12MHM05,8/4/12 9:40 AM,8/4/2012,9:40 AM,8/4/12 1:40 PM,8/4/12,1:40 PM,29.23890,-85.75521667,398.60,29.10375,35.53,0.988
12MHM05,8/4/12 9:55 AM,8/4/2012,9:55 AM,8/4/12 1:55 PM,8/4/12,1:55 PM,29.26942,-85.7552,397.80,28.96325,35.39,0.901
12MHM05,8/4/12 10:10 AM,8/4/2012,10:10 AM,8/4/12 2:10 PM,8/4/12,2:10 PM,29.30770,-85.75508333,394.40,29.1164,35.09,2.457
12MHM05,8/4/12 10:25 AM,8/4/2012,10:25 AM,8/4/12 2:25 PM,8/4/12,2:25 PM,29.34183,-85.7551,394.60,29.2666,35.00,2.719
12MHM05,8/4/12 10:40 AM,8/4/2012,10:40 AM,8/4/12 2:40 PM,8/4/12,2:40 PM,29.37580,-85.7551,394.30,29.29815,34.97,1.532
12MHM05,8/4/12 10:55 AM,8/4/2012,10:55 AM,8/4/12 2:55 PM,8/4/12,2:55 PM,29.40872,-85.75495,391.90,29.25445,34.86,-999
12MHM05,8/4/12 11:10 AM,8/4/2012,11:10 AM,8/4/12 3:10 PM,8/4/12,3:10 PM,29.44163,-85.75491667,392.10,29.32115,34.57,-999
12MHM05,8/4/12 11:25 AM,8/4/2012,11:25 AM,8/4/12 3:25 PM,8/4/12,3:25 PM,29.47423,-85.7548,392.20,29.2685,34.38,-999
12MHM05,8/4/12 11:40 AM,8/4/2012,11:40 AM,8/4/12 3:40 PM,8/4/12,3:40 PM,29.50638,-85.75475,392.80,29.2899,34.50,-999
12MHM05,8/4/12 11:55 AM,8/4/2012,11:55 AM,8/4/12 3:55 PM,8/4/12,3:55 PM,29.53865,-85.75475,391.60,29.30535,34.31,-999
12MHM05,8/4/12 12:10 PM,8/4/2012,12:10 PM,8/4/12 4:10 PM,8/4/12,4:10 PM,29.57138,-85.7548,389.90,29.18925,34.00,-999
12MHM05,8/4/12 12:25 PM,8/4/2012,12:25 PM,8/4/12 4:25 PM,8/4/12,4:25 PM,29.60453,-85.75471667,389.40,29.16715,33.97,-999
12MHM05,8/4/12 12:40 PM,8/4/2012,12:40 PM,8/4/12 4:40 PM,8/4/12,4:40 PM,29.63905,-85.75451667,389.30,29.10015,33.51,-999
12MHM05,8/4/12 12:55 PM,8/4/2012,12:55 PM,8/4/12 4:55 PM,8/4/12,4:55 PM,29.67320,-85.75453333,393.00,29.114,33.48,-999
12MHM05,8/4/12 1:10 PM,8/4/2012,1:10 PM,8/4/12 5:10 PM,8/4/12,5:10 PM,29.70737,-85.75446667,401.60,29.07405,33.49,-999
12MHM05,8/4/12 1:25 PM,8/4/2012,1:25 PM,8/4/12 5:25 PM,8/4/12,5:25 PM,29.74152,-85.75451667,405.70,28.99305,33.41,-999
12MHM05,8/4/12 1:40 PM,8/4/2012,1:40 PM,8/4/12 5:40 PM,8/4/12,5:40 PM,29.77545,-85.75436667,407.70,28.9675,33.32,-999
12MHM05,8/4/12 1:55 PM,8/4/2012,1:55 PM,8/4/12 5:55 PM,8/4/12,5:55 PM,29.80935,-85.75438333,406.30,29.35525,33.29,-999
12MHM05,8/4/12 2:10 PM,8/4/2012,2:10 PM,8/4/12 6:10 PM,8/4/12,6:10 PM,29.84362,-85.75436667,403.90,29.23625,32.77,-999
12MHM05,8/4/12 2:25 PM,8/4/2012,2:25 PM,8/4/12 6:25 PM,8/4/12,6:25 PM,29.87777,-85.7542,401.30,29.4442,32.84,-999
12MHM05,8/4/12 2:40 PM,8/4/2012,2:40 PM,8/4/12 6:40 PM,8/4/12,6:40 PM,29.91222,-85.75413333,400.90,29.69415,32.92,-999
12MHM05,8/4/12 2:55 PM,8/4/2012,2:55 PM,8/4/12 6:55 PM,8/4/12,6:55 PM,29.94667,-85.75416667,402.40,29.7518,32.81,-999
12MHM05,8/4/12 3:10 PM,8/4/2012,3:10 PM,8/4/12 7:10 PM,8/4/12,7:10 PM,29.98203,-85.75398333,398.10,29.995,33.49,-999
12MHM05,8/4/12 3:25 PM,8/4/2012,3:25 PM,8/4/12 7:25 PM,8/4/12,7:25 PM,30.01690,-85.7541,398.20,29.83005,33.73,-999
12MHM05,8/4/12 3:40 PM,8/4/2012,3:40 PM,8/4/12 7:40 PM,8/4/12,7:40 PM,30.05200,-85.75388333,390.40,29.5109,33.73,-999
12MHM05,8/4/12 3:55 PM,8/4/2012,3:55 PM,8/4/12 7:55 PM,8/4/12,7:55 PM,30.08645,-85.75393333,387.40,29.5423,33.91,-999
12MHM05,8/4/12 4:10 PM,8/4/2012,4:10 PM,8/4/12 8:10 PM,8/4/12,8:10 PM,30.11398,-85.7408,386.90,29.44845,34.04,-999
12MHM05,8/4/12 4:25 PM,8/4/2012,4:25 PM,8/4/12 8:25 PM,8/4/12,8:25 PM,30.13133,-85.71498333,384.80,29.4999,34.35,-999
12MHM05,8/4/12 4:40 PM,8/4/2012,4:40 PM,8/4/12 8:40 PM,8/4/12,8:40 PM,30.14952,-85.68583333,383.00,29.4409,34.20,-999
12MHM05,8/4/12 4:55 PM,8/4/2012,4:55 PM,8/4/12 8:55 PM,8/4/12,8:55 PM,30.16780,-85.70685,383.40,29.43525,34.48,-999
12MHM05,8/4/12 5:10 PM,8/4/2012,5:10 PM,8/4/12 9:10 PM,8/4/12,9:10 PM,30.16928,-85.70498333,370.90,29.59605,33.43,-999
12MHM05,8/4/12 5:25 PM,8/4/2012,5:25 PM,8/4/12 9:25 PM,8/4/12,9:25 PM,30.16928,-85.705,370.70,30.0438,31.76,-999
12MHM05,8/4/12 5:40 PM,8/4/2012,5:40 PM,8/4/12 9:40 PM,8/4/12,9:40 PM,30.16930,-85.70498333,373.00,30.2664,31.78,-999
12MHM05,8/4/12 5:55 PM,8/4/2012,5:55 PM,8/4/12 9:55 PM,8/4/12,9:55 PM,30.16928,-85.70498333,366.60,30.53905,30.92,-999
12MHM05,8/4/12 6:10 PM,8/4/2012,6:10 PM,8/4/12 10:10 PM,8/4/12,10:10 PM,30.16928,-85.70496667,390.10,30.37835,31.16,-999
12MHM05,8/4/12 6:25 PM,8/4/2012,6:25 PM,8/4/12 10:25 PM,8/4/12,10:25 PM,30.16927,-85.70496667,395.10,30.36315,30.99,-999
12MHM05,8/4/12 6:40 PM,8/4/2012,6:40 PM,8/4/12 10:40 PM,8/4/12,10:40 PM,30.16927,-85.70496667,391.20,30.39715,31.03,-999
12MHM05,8/4/12 6:55 PM,8/4/2012,6:55 PM,8/4/12 10:55 PM,8/4/12,10:55 PM,30.16928,-85.70496667,394.90,30.3689,30.85,-999
12MHM05,8/4/12 7:10 PM,8/4/2012,7:10 PM,8/4/12 11:10 PM,8/4/12,11:10 PM,30.16930,-85.70498333,406.30,30.44635,30.77,-999
12MHM05,8/4/12 7:25 PM,8/4/2012,7:25 PM,8/4/12 11:25 PM,8/4/12,11:25 PM,30.16928,-85.70495,415.00,30.5569,30.55,-999
12MHM05,8/4/12 7:40 PM,8/4/2012,7:40 PM,8/4/12 11:40 PM,8/4/12,11:40 PM,30.16928,-85.70496667,408.40,30.5891,30.51,-999
12MHM05,8/4/12 7:55 PM,8/4/2012,7:55 PM,8/4/12 11:55 PM,8/4/12,11:55 PM,30.16928,-85.70498333,418.80,30.78645,30.56,-999
12MHM05,8/4/12 8:10 PM,8/4/2012,8:10 PM,8/5/12 12:10 AM,8/5/12,12:10 AM,30.16927,-85.70496667,425.40,31.06445,30.60,-999
12MHM05,8/5/12 2:35 AM,8/5/2012,2:35 AM,8/5/12 6:35 AM,8/5/12,6:35 AM,29.99998,-85.91591667,487.30,29.783,33.43,-999
12MHM05,8/5/12 2:50 AM,8/5/2012,2:50 AM,8/5/12 6:50 AM,8/5/12,6:50 AM,29.99353,-85.92631667,465.00,29.73845,33.37,-999
12MHM05,8/5/12 3:05 AM,8/5/2012,3:05 AM,8/5/12 7:05 AM,8/5/12,7:05 AM,29.98720,-85.93666667,450.10,29.75165,33.37,-999
12MHM05,8/5/12 3:20 AM,8/5/2012,3:20 AM,8/5/12 7:20 AM,8/5/12,7:20 AM,29.98072,-85.94691667,439.40,29.7795,33.36,-999
12MHM05,8/5/12 3:35 AM,8/5/2012,3:35 AM,8/5/12 7:35 AM,8/5/12,7:35 AM,29.96908,-85.96551667,442.10,29.75895,33.27,-999
12MHM05,8/5/12 3:50 AM,8/5/2012,3:50 AM,8/5/12 7:50 AM,8/5/12,7:50 AM,29.95453,-85.9891,438.10,29.73935,33.27,-999
12MHM05,8/5/12 4:05 AM,8/5/2012,4:05 AM,8/5/12 8:05 AM,8/5/12,8:05 AM,29.94007,-86.01223333,437.60,29.72925,33.18,-999
12MHM05,8/5/12 4:20 AM,8/5/2012,4:20 AM,8/5/12 8:20 AM,8/5/12,8:20 AM,29.92543,-86.03575,436.50,29.80905,33.21,-999
12MHM05,8/5/12 4:35 AM,8/5/2012,4:35 AM,8/5/12 8:35 AM,8/5/12,8:35 AM,29.91055,-86.05971667,431.10,29.7773,33.16,-999
12MHM05,8/5/12 4:50 AM,8/5/2012,4:50 AM,8/5/12 8:50 AM,8/5/12,8:50 AM,29.89543,-86.08371667,422.10,29.76865,33.17,-999
12MHM05,8/5/12 5:05 AM,8/5/2012,5:05 AM,8/5/12 9:05 AM,8/5/12,9:05 AM,29.88035,-86.1079,418.50,29.9232,33.49,-999
12MHM05,8/5/12 5:20 AM,8/5/2012,5:20 AM,8/5/12 9:20 AM,8/5/12,9:20 AM,29.86537,-86.13208333,413.80,29.57545,32.99,-999